Tracking 29892 objects as of 21-Nov-2024
HD Live streaming from Space Station
objects crossing your sky now

STARLINK-4312

Track STARLINK-4312 now!
10-day predictions
STARLINK-4312 is classified as:


NORAD ID: 53065
Int'l Code: 2022-077Y
Perigee: 568.0 km
Apogee: 572.3 km
Inclination: 97.7 °
Period: 95.9 minutes
Semi major axis: 6941 km
RCS: Unknown
Launch date: July 11, 2022
Source: United States (US)
Launch site: AIR FORCE WESTERN TEST RANGE (AFWTR)
Your satellite tracking list
Your tracking list is empty




NASA's NSSDC Master Catalog

Two Line Element Set (TLE):
1 53065U 22077Y   24325.44452354  .00000100  00000-0  12375-4 0  9997
2 53065  97.6560 144.0579 0003080  70.4210 289.7346 15.01259980129763
Source of the keplerian elements: AFSPC